User: anonymous   Login
Location: Unspecified
(0.0000°N, 0.0000°E)
Time: 17:19:20
(UTC+00:00)
Language:

GONETS M 10 (M20) - Orbit

View from above orbital plane
View from above orbital plane
View from above satellite
View from above satellite

Ground track
Ground track

The orbit data is extracted from the following two-line orbital elements,

1 40063U 14036C   18112.72953157  .00000053  00000-0  30947-3 0  9993
2 40063  82.5145 356.8181 0021193 150.6726 209.5547 12.42871848172574
Epoch (UTC): 22 April 2018 17:30:31
Eccentricity: 0.0021193
inclination: 82.5145°
perigee height: 1478 km
apogee height: 1511 km
right ascension of ascending node: 356.8181°
argument of perigee: 150.6726°
revolutions per day: 12.42871848
mean anomaly at epoch: 209.5547°
orbit number at epoch: 17257

The dashed part of the orbit path shows where the satellite is in the earth's shadow,  

DLR